EW8311 Weather Reports


Display with metric or nautical units.
time (UTC)temp
F
wind
direction
speed
MPH
gust
MPH
rain 1hr
in
rain 24hr
in
rain mn
in
humidity
%
barometer
mb
20200328121710 38 37 0.0 0.0 0.00 0.00 0.00 62 1018.7
20200328120057 37 37 0.0 0.0 0.00 0.00 0.00 61 1018.5
20200328114614 38 37 0.0 1.0 0.00 0.00 0.00 62 1018.6
20200328113037 37 347 0.0 0.0 0.00 0.00 0.00 63 1018.6
20200328111555 37 347 0.0 0.0 0.00 0.00 0.00 66 1018.6
20200328110057 37 347 0.0 0.0 0.00 0.00 0.00 62 1018.6
20200328104530 38 347 0.0 0.0 0.00 0.00 0.00 63 1018.6
20200328103053 38 347 0.0 1.0 0.00 0.00 0.00 64 1018.4
20200328101557 38 330 0.0 0.0 0.00 0.00 0.00 66 1018.2
20200328100029 38 331 0.0 0.0 0.00 0.00 0.00 60 1018.2
20200328094526 38 331 0.0 0.0 0.00 0.00 0.00 63 1018.1
20200328093149 38 331 0.0 0.0 0.00 0.00 0.00 68 1018.2
20200328090018 39 331 0.0 0.0 0.00 0.00 0.00 64 1018.1
20200328084511 39 331 0.0 0.0 0.00 0.00 0.00 59 1018.1
20200328083006 39 321 0.0 0.0 0.00 0.00 0.00 63 1018.1
20200328081508 40 321 0.0 0.0 0.00 0.00 0.00 61 1018.2
20200328080002 40 321 0.0 0.0 0.00 0.00 0.00 60 1018.0
20200328074751 41 321 0.0 1.0 0.00 0.00 0.00 54 1018.0
20200328073127 41 313 0.0 2.0 0.00 0.00 0.00 57 1017.9
20200328071649 42 121 0.0 0.0 0.00 0.00 0.00 56 1017.8
20200328070144 41 121 0.0 0.0 0.00 0.00 0.00 54 1017.7
20200328064719 42 121 0.0 0.0 0.00 0.00 0.00 52 1017.6
20200328063330 42 122 0.0 1.0 0.00 0.00 0.00 52 1017.5
20200328061640 42 122 0.0 1.0 0.00 0.00 0.00 51 1017.4
20200328060115 44 123 0.0 0.0 0.00 0.00 0.00 51 1017.1
20200328054738 46 348 0.0 1.0 0.00 0.00 0.00 41 1016.9
20200328053123 47 327 0.0 2.0 0.00 0.00 0.00 39 1016.9
20200328051618 48 332 1.0 4.0 0.00 0.00 0.00 40 1016.7
20200328050103 48 325 3.0 7.0 0.00 0.00 0.00 39 1016.6
20200328044612 48 326 0.0 2.0 0.00 0.00 0.00 39 1016.4
20200328043116 49 315 1.0 5.0 0.00 0.00 0.00 36 1016.3
20200328041550 50 284 0.0 6.0 0.00 0.00 0.00 36 1016.0
20200328040120 50 338 2.0 8.0 0.00 0.00 0.00 35 1015.8
20200328034527 50 312 1.0 10.0 0.00 0.00 0.00 35 1015.6
20200328033102 50 332 2.0 9.0 0.00 0.00 0.00 35 1015.3
20200328031526 50 309 2.0 8.0 0.00 0.00 0.00 36 1015.0
20200328030038 50 326 2.0 9.0 0.00 0.00 0.00 35 1014.7
20200328024531 50 321 2.0 6.0 0.00 0.00 0.00 36 1014.5
20200328023015 50 324 1.0 4.0 0.00 0.00 0.00 38 1014.3
20200328021512 51 314 2.0 11.0 0.00 0.00 0.00 36 1014.2
20200328020011 51 224 3.0 7.0 0.00 0.00 0.00 37 1014.3
20200328014517 52 325 4.0 10.0 0.00 0.00 0.00 35 1014.0
20200328013059 52 309 3.0 10.0 0.00 0.00 0.00 34 1013.8
20200328011506 53 325 4.0 13.0 0.00 0.00 0.00 31 1013.5
20200328010004 54 313 7.0 12.0 0.00 0.00 0.00 31 1013.3
20200328004510 54 337 5.0 12.0 0.00 0.00 0.00 32 1013.1
20200328003207 55 332 4.0 11.0 0.00 0.00 0.00 31 1012.9
20200328001624 55 282 8.0 17.0 0.00 0.00 0.00 30 1012.8
20200328000206 55 314 7.0 14.0 0.00 0.00 0.00 31 1012.7
20200327234646 55 283 5.0 14.0 0.00 0.00 0.00 33 1012.6
20200327233121 53 268 10.0 16.0 0.00 0.00 0.00 36 1012.6
20200327231736 53 316 6.0 11.0 0.00 0.00 0.00 36 1012.5
20200327230147 53 4 4.0 12.0 0.00 0.00 0.00 37 1012.4
20200327224555 54 347 14.0 21.0 0.00 0.00 0.00 35 1012.2
20200327223148 54 304 2.0 8.0 0.00 0.00 0.00 35 1011.9
20200327221725 54 281 4.0 22.0 0.00 0.00 0.00 37 1011.8
20200327220146 54 313 9.0 20.0 0.00 0.00 0.00 35 1011.9
20200327214707 52 321 7.0 16.0 0.00 0.00 0.00 36 1011.7
20200327213207 53 333 12.0 20.0 0.00 0.00 0.00 34 1011.4
20200327211618 53 330 8.0 17.0 0.00 0.00 0.00 33 1011.3
20200327210311 53 311 10.0 16.0 0.00 0.00 0.00 33 1011.5
20200327204550 54 335 6.0 15.0 0.00 0.00 0.00 32 1011.4
20200327203101 53 342 3.0 10.0 0.00 0.00 0.00 35 1011.4
20200327201802 54 307 15.0 26.0 0.00 0.00 0.00 33 1011.5
20200327200052 55 309 3.0 11.0 0.00 0.00 0.00 36 1011.4
20200327194556 55 332 6.0 15.0 0.00 0.00 0.00 38 1011.2
20200327193034 53 317 5.0 17.0 0.00 0.00 0.00 39 1011.5
20200327191551 53 332 7.0 16.0 0.00 0.00 0.00 41 1011.8
20200327190146 52 312 10.0 19.0 0.00 0.00 0.00 44 1011.9
20200327184657 52 311 5.0 13.0 0.00 0.00 0.00 43 1011.8
20200327183031 52 270 7.0 18.0 0.00 0.00 0.00 42 1011.8
20200327181546 54 257 6.0 13.0 0.00 0.00 0.00 40 1011.9
20200327180055 54 326 5.0 11.0 0.00 0.00 0.00 41 1011.7
20200327174607 51 301 4.0 10.0 0.00 0.00 0.00 44 1011.7
20200327173108 52 328 5.0 11.0 0.00 0.00 0.00 43 1011.5
20200327171527 52 311 5.0 11.0 0.00 0.00 0.00 42 1011.3
20200327170026 50 260 4.0 8.0 0.00 0.00 0.00 43 1011.1
20200327164546 49 289 1.0 10.0 0.00 0.00 0.00 48 1011.1
20200327163027 49 236 3.0 8.0 0.00 0.00 0.00 53 1010.9
20200327161531 48 338 4.0 11.0 0.00 0.00 0.00 59 1010.9
20200327160018 49 347 8.0 18.0 0.00 0.00 0.00 57 1010.6
20200327154542 50 283 5.0 14.0 0.00 0.00 0.00 50 1010.5
20200327153012 48 333 6.0 14.0 0.00 0.00 0.00 50 1010.3
20200327151508 48 314 2.0 8.0 0.00 0.00 0.00 49 1009.9
20200327150017 47 345 4.0 8.0 0.00 0.00 0.00 48 1009.8
20200327144503 47 262 3.0 9.0 0.00 0.00 0.00 51 1009.7
20200327143126 47 322 2.0 5.0 0.00 0.00 0.00 49 1009.4
20200327141725 47 320 0.0 3.0 0.00 0.00 0.00 50 1009.1
20200327140310 48 87 0.0 1.0 0.00 0.00 0.00 48 1009.0
20200327134707 47 74 0.0 1.0 0.00 0.00 0.00 51 1008.8
20200327133145 47 312 0.0 1.0 0.00 0.00 0.00 51 1008.6
20200327131704 47 312 0.0 0.0 0.00 0.00 0.00 49 1008.5
20200327130120 47 312 0.0 2.0 0.00 0.00 0.00 50 1008.3
20200327124625 48 318 0.0 3.0 0.00 0.00 0.00 49 1008.2
20200327123108 48 282 0.0 2.0 0.00 0.00 0.00 48 1008.1